Powrót do katalogu

KUIPER-00173

AktywnyŁącznośćLEO
NORAD 65786·PAYLOAD·🇺🇸 United States

Wystrzelony Sep 25, 2025 z Cape Canaveral Space Force Station

Loading…

Następne Przeloty (najbliższe 24 godziny)

TLE

ŚwieżeSource: CelesTrak SupGP

Epoka: Sep 14, 2026, 13:14 UTC

1 65786C 25217AA  26257.55203704  .00005815  00000+0  76149-3 0  2572
2 65786  51.8990 277.9671 0000471  45.3781 192.2777 14.79910961    18

Śledź KUIPER-00173 w czasie rzeczywistym z AllMySat

Download on the App Store